Location: Kapuskasing
(49.3803°N, 82.4001°W)
Time: 10:20:20
(UTC-04:00)

RS-44 - Pass Details

Date: 16 March 2026
Orbit: 1175 x 1510 km, 82.5° (Epoch: 11 April)

Event Time Altitude Azimuth Distance (km) Brightness Sun altitude
Rises 03:16:37 0° 350° (N) 4,382 ? -37.9°
Reaches altitude 10° 03:19:25 10° 355° (N) 3,450 ? -37.7°
Maximum altitude 03:27:38 61° 75° (ENE) 1,617 ? -36.9°
Enters shadow 03:29:25 52° 118° (ESE) 1,763 ? -36.7°
